This demonstration page uses our WeatherBlox Daily Observations layout. Learn more.

Left ArrowRight Arrow

41.55636, -103.73856

Hourly Observations for January 22, 2021

Temp ( °F °C ) Dew Point ( °F °C ) Humidity (%) Winds ( mph kmh ) Pressure ( in mb ) Visibility ( mi km ) Precip ( " mm )
12:53 am 00:53 Cloudy 30 -1.1 14 -10 51 51 E 10 17 30.04 1017 10 16.0934 0 0
1:53 am 01:53 Cloudy 29 -1.7 14 -10 54 54 E 10 17 30.04 1017 10 16.0934 0 0
2:53 am 02:53 Cloudy 28 -2.2 14 -10 56 56 E 10 17 30.05 1018 10 16.0934 0 0
3:53 am 03:53 Cloudy 28 -2.2 14 -10 56 56 ESE 15 24 30.04 1017 10 16.0934 0 0
4:53 am 04:53 Cloudy 28 -2.2 14 -10 56 56 E 12 19 30.06 1018 10 16.0934 0 0
5:53 am 05:53 Cloudy 27 -2.8 15 -9.4 61 61 ESE 16 26 30.06 1018 10 16.0934 0 0
6:53 am 06:53 Cloudy 26 -3.3 16 -8.9 66 66 E 14 22 30.08 1019 10 16.0934 0 0
7:53 am 07:53 Cloudy 26 -3.3 16 -8.9 66 66 E 13 20 30.09 1019 10 16.0934 0 0
8:53 am 08:53 Mostly Cloudy 28 -2.2 16 -8.9 60 60 E 14 22 30.11 1020 10 16.0934 0 0
9:53 am 09:53 Partly Cloudy 30 -1.1 16 -8.9 56 56 E 9 15 30.12 1020 10 16.0934 0 0
10:53 am 10:53 Sunny 32 0 15 -9.4 50 50 E 6 9 30.11 1020 10 16.0934 0 0
11:53 am 11:53 Sunny 34 1.1 16 -8.9 48 48 VRB 3 6 30.07 1018 10 16.0934 0 0
12:53 pm 12:53 Sunny 35 1.7 16 -8.9 46 46 Calm 30.04 1017 10 16.0934 0 0
1:53 pm 13:53 Mostly Cloudy 35 1.7 16 -8.9 46 46 Calm 30.02 1017 10 16.0934 0 0
2:53 pm 14:53 Cloudy 36 2.2 16 -8.9 44 44 Calm 30.02 1017 10 16.0934 0 0
3:53 pm 15:53 Cloudy 35 1.7 17 -8.3 48 48 VRB 3 6 30.01 1016 10 16.0934 0 0
4:53 pm 16:53 Cloudy 34 1.1 20 -6.7 56 56 Calm 30.01 1016 10 16.0934 0 0
5:42 pm 17:42 Cloudy with Light Snow 33 0.6 21 -6.1 61 61 VRB 3 6 30.04 1017 2.5 4.02335 0.001 0.001
5:50 pm 17:50 Cloudy with Light Snow 30 -1 25 -4 80 80 S 6 9 30.07 1018 1.25 2.011675 0.001 0.001
5:53 pm 17:53 Mostly Cloudy with Light Snow 31 -0.6 24 -4.4 76 76 SSW 9 15 30.02 1017 1 1.60934 0.001 0.001
5:56 pm 17:56 Mostly Cloudy with Light Snow 30 -1.1 25 -3.9 82 82 SSW 7 11 30.08 1019 0.75 1.207005 0.001 0.001
6:17 pm 18:17 Mostly Cloudy with Light Snow 30 -1.1 26 -3.3 85 85 E 3 6 30.07 1018 0.75 1.207005 0.03 0.762
6:29 pm 18:29 Mostly Cloudy with Light Snow 30 -1.1 26 -3.3 85 85 ENE 5 7 30.06 1018 1 1.60934 0.04 1.016
6:38 pm 18:38 Cloudy with Light Snow 30 -1.1 26 -3.3 85 85 NE 5 7 30.06 1018 2 3.21868 0.04 1.016
6:44 pm 18:44 Cloudy with Light Snow 30 -1.1 26 -3.3 85 85 NNE 3 6 30.06 1018 4 6.43736 0.04 1.016
6:53 pm 18:53 Cloudy with Light Snow 30 -1.1 26 -3.3 85 85 Calm 30.02 1017 7 11.26538 0.04 1.016
7:53 pm 19:53 Cloudy 30 -1.1 26 -3.3 85 85 Calm 29.99 1016 8 12.87472 0.01 0.254
8:53 pm 20:53 Cloudy 31 -0.6 27 -2.8 85 85 E 5 7 29.97 1015 10 16.0934 0 0
9:53 pm 21:53 Cloudy 30 -1.1 22 -5.6 72 72 ESE 10 17 29.96 1014 10 16.0934 0 0
10:53 pm 22:53 Cloudy 30 -1.1 21 -6.1 69 69 ESE 15 24 29.93 1014 10 16.0934 0 0
11:53 pm 23:53 Cloudy 31 -0.6 21 -6.1 67 67 ESE 12 19 29.9 1013 10 16.0934 0 0

Powered by AerisWeather